OE3MHU-13 Weather Reports


time (UTC)temp
C
wind
direction
speed
KPH
gust
KPH
rain 1hr
cm
rain 24hr
cm
rain mn
cm
humidity
%
barometer
mb
20260507035536 14 209 11.3 25.7 0.00 0.03 0.00 68 1011.4
20260507035035 14 252 11.3 25.7 0.00 0.03 0.00 68 1011.4
20260507034535 14 247 11.3 29.0 0.00 0.03 0.00 68 1011.4
20260507034035 14 203 11.3 29.0 0.00 0.03 0.00 68 1011.4
20260507033533 14 174 11.3 27.4 0.00 0.03 0.00 68 1011.4
20260507033033 14 165 11.3 27.4 0.00 0.03 0.00 68 1011.3
20260507032533 14 209 11.3 25.7 0.00 0.03 0.00 68 1011.3
20260507032031 14 37 11.3 22.5 0.00 0.03 0.00 68 1011.3
20260507031531 14 204 9.7 19.3 0.00 0.03 0.00 68 1011.3
20260507031031 14 131 9.7 19.3 0.00 0.03 0.00 68 1011.2
20260507030530 15 261 8.0 22.5 0.00 0.03 0.00 68 1011.3
20260507030025 15 194 8.0 22.5 0.00 0.03 0.00 68 1011.1
20260507025517 15 203 8.0 17.7 0.00 0.03 0.00 68 1011.1
20260507025012 15 207 9.7 19.3 0.00 0.03 0.00 68 1011.1
20260507024506 15 213 9.7 20.9 0.00 0.03 0.00 68 1011.1
20260507024000 15 154 11.3 20.9 0.00 0.03 0.00 68 1011.0
20260507023454 15 205 12.9 22.5 0.00 0.03 0.00 69 1011.0
20260507022948 15 181 11.3 22.5 0.00 0.03 0.00 69 1010.9
20260507022441 15 146 8.0 19.3 0.00 0.03 0.00 69 1011.0
20260507021937 15 224 9.7 22.5 0.00 0.03 0.00 69 1010.9
20260507021430 15 203 9.7 22.5 0.00 0.03 0.00 69 1010.9
20260507020924 15 259 9.7 22.5 0.00 0.03 0.00 70 1010.8
20260507020418 15 188 9.7 22.5 0.00 0.03 0.00 70 1010.8
20260507015912 15 174 8.0 19.3 0.00 0.03 0.00 71 1010.8
20260507015407 15 89 9.7 19.3 0.00 0.03 0.00 71 1010.9
20260507014859 15 160 8.0 19.3 0.00 0.03 0.00 71 1011.0
20260507014354 15 250 6.4 19.3 0.00 0.03 0.00 71 1011.0
20260507013848 15 187 6.4 17.7 0.00 0.03 0.00 71 1010.9
20260507013342 15 216 8.0 17.7 0.00 0.03 0.00 71 1010.8
20260507012837 15 219 8.0 16.1 0.00 0.03 0.00 71 1010.7
20260507012331 15 178 8.0 17.7 0.00 0.03 0.00 71 1010.8
20260507011829 15 200 9.7 20.9 0.00 0.03 0.00 71 1010.7
20260507011329 15 163 9.7 20.9 0.00 0.03 0.00 71 1010.6
20260507010828 15 226 8.0 19.3 0.00 0.03 0.00 71 1010.6
20260507010329 15 218 9.7 22.5 0.00 0.03 0.00 70 1010.7
20260507005829 15 219 11.3 22.5 0.00 0.03 0.00 70 1010.6
20260507005328 15 193 11.3 22.5 0.00 0.03 0.00 70 1010.4
20260507004829 15 159 11.3 22.5 0.00 0.03 0.00 70 1010.4
20260507004329 15 190 12.9 24.1 0.00 0.03 0.00 70 1010.3
20260507003829 15 186 12.9 27.4 0.00 0.03 0.00 70 1010.2
20260507003328 15 169 11.3 27.4 0.00 0.03 0.00 70 1010.1
20260507002829 15 210 11.3 22.5 0.00 0.03 0.00 70 1010.0
20260507002329 16 166 12.9 27.4 0.00 0.03 0.00 70 1010.0
20260507001829 16 165 12.9 27.4 0.00 0.03 0.00 70 1010.1
20260507001329 16 292 11.3 25.7 0.00 0.03 0.00 70 1010.1
20260507000829 16 229 8.0 24.1 0.00 0.03 0.00 70 1009.9
20260507000329 16 127 8.0 24.1 0.00 0.03 0.00 70 1010.0
20260506235828 16 216 8.0 17.7 0.00 0.03 0.00 71 1009.9
20260506235323 16 158 8.0 25.7 0.00 0.03 0.00 71 1010.0
20260506234816 16 228 8.0 25.7 0.00 0.03 0.00 71 1009.9
20260506234310 16 195 8.0 19.3 0.00 0.03 0.00 72 1009.9
20260506233805 16 180 8.0 22.5 0.00 0.03 0.00 72 1009.8
20260506233258 16 213 8.0 22.5 0.00 0.03 0.00 72 1009.8
20260506232752 16 256 9.7 20.9 0.00 0.03 0.00 72 1009.8
20260506232246 16 245 9.7 20.9 0.00 0.03 0.00 72 1009.8
20260506231740 16 297 8.0 17.7 0.00 0.03 0.00 72 1009.8
20260506231236 16 211 9.7 29.0 0.00 0.03 0.00 72 1009.7
20260506230736 16 173 11.3 29.0 0.00 0.03 0.00 72 1009.4
20260506230236 16 210 11.3 24.1 0.00 0.03 0.00 71 1009.3
20260506225737 16 176 11.3 24.1 0.00 0.03 0.00 70 1009.2
20260506225236 17 219 12.9 27.4 0.00 0.03 0.00 70 1009.1
20260506224736 17 167 12.9 27.4 0.00 0.03 0.00 69 1009.2
20260506224237 17 234 9.7 22.5 0.00 0.03 0.00 68 1009.1
20260506223736 17 209 8.0 22.5 0.00 0.03 0.00 67 1009.1
20260506223237 17 243 8.0 17.7 0.00 0.03 0.00 66 1008.9
20260506222735 17 214 6.4 14.5 0.00 0.03 0.00 66 1008.8
20260506222235 17 242 4.8 16.1 0.00 0.03 0.00 65 1008.6
20260506221734 17 216 4.8 16.1 0.00 0.03 0.00 65 1008.5
20260506221235 17 220 4.8 11.3 0.00 0.03 0.00 65 1008.5
20260506220735 17 257 4.8 12.9 0.00 0.03 0.00 65 1007.9
20260506220718 17 123 3.2 12.9 0.00 0.03 0.00 65 1008.0
20260506220222 17 205 0.0 3.2 0.00 0.03 0.03 65 1007.8
20260506215232 18 199 0.0 4.8 0.00 0.03 0.03 65 1007.5
20260506214729 18 219 0.0 4.8 0.00 0.03 0.03 64 1007.5
20260506214224 18 236 0.0 3.2 0.00 0.03 0.03 64 1007.4
20260506213717 18 236 1.6 8.0 0.00 0.03 0.03 64 1007.4
20260506213210 18 233 1.6 8.0 0.00 0.03 0.03 64 1007.3
20260506212705 18 143 3.2 14.5 0.00 0.03 0.03 63 1007.3
20260506212159 18 93 8.0 22.5 0.00 0.03 0.03 62 1007.1
20260506212135 18 86 11.3 25.7 0.00 0.03 0.03 62 1006.9
20260506211146 18 46 16.1 25.7 0.00 0.03 0.03 62 1006.9
20260506210640 19 52 14.5 24.1 0.00 0.03 0.03 62 1006.8
20260506210135 19 81 14.5 29.0 0.00 0.03 0.03 62 1006.8
20260506205628 19 92 12.9 29.0 0.00 0.03 0.03 61 1006.7
20260506205123 19 83 9.7 22.5 0.00 0.03 0.03 61 1006.7
20260506204616 19 79 9.7 20.9 0.00 0.03 0.03 61 1006.8
20260506204112 19 103 9.7 17.7 0.00 0.03 0.03 61 1006.8
20260506203605 19 93 9.7 20.9 0.00 0.03 0.03 61 1006.7
20260506203101 19 100 11.3 22.5 0.00 0.03 0.03 60 1006.7
20260506202553 19 85 12.9 25.7 0.00 0.03 0.03 60 1006.5
20260506202047 19 93 14.5 37.0 0.00 0.03 0.03 60 1006.5
20260506201541 20 77 11.3 37.0 0.00 0.03 0.03 60 1006.4
20260506201035 20 61 9.7 22.5 0.00 0.03 0.03 60 1006.5
20260506200529 20 87 14.5 33.8 0.00 0.03 0.03 59 1006.5
20260506200023 20 63 16.1 33.8 0.00 0.03 0.03 59 1006.3
20260506195517 20 73 12.9 27.4 0.00 0.03 0.03 59 1006.1
20260506195011 20 98 12.9 32.2 0.00 0.03 0.03 59 1006.1
20260506194505 20 82 16.1 37.0 0.00 0.03 0.03 59 1006.0
20260506193959 20 63 14.5 37.0 0.00 0.03 0.03 58 1005.9
20260506193456 20 100 14.5 32.2 0.00 0.03 0.03 58 1006.0
20260506192946 20 101 14.5 37.0 0.00 0.03 0.03 58 1005.8
20260506192441 20 73 14.5 37.0 0.00 0.03 0.03 58 1005.7
20260506191935 20 91 12.9 29.0 0.00 0.03 0.03 58 1005.7
20260506191428 20 153 12.9 29.0 0.00 0.03 0.03 58 1005.7
20260506190922 20 72 12.9 22.5 0.00 0.03 0.03 57 1005.6
20260506190417 20 85 12.9 32.2 0.00 0.03 0.03 57 1005.6
20260506185911 20 89 14.5 32.2 0.00 0.03 0.03 57 1005.6
20260506185405 20 86 17.7 32.2 0.00 0.03 0.03 56 1005.5
20260506184858 21 84 19.3 32.2 0.00 0.03 0.03 56 1005.4
20260506184353 21 80 16.1 29.0 0.00 0.03 0.03 56 1005.4
20260506183849 21 84 14.5 33.8 0.00 0.03 0.03 56 1005.4
20260506183341 21 72 16.1 33.8 0.00 0.03 0.03 55 1005.2
20260506182835 21 338 16.1 35.4 0.00 0.03 0.03 55 1005.3
20260506182329 21 150 12.9 27.4 0.00 0.03 0.03 55 1005.2
20260506181823 21 87 14.5 30.6 0.00 0.03 0.03 54 1005.3
20260506181316 21 91 17.7 30.6 0.00 0.03 0.03 54 1005.2
20260506180811 21 34 17.7 32.2 0.00 0.03 0.03 54 1005.2
20260506180305 21 71 17.7 32.2 0.00 0.03 0.03 53 1005.1
20260506175758 21 89 17.7 35.4 0.00 0.03 0.03 53 1005.1
20260506175252 22 112 19.3 37.0 0.00 0.03 0.03 53 1005.1
20260506174747 22 76 17.7 37.0 0.00 0.03 0.03 53 1005.0
20260506174244 22 84 14.5 29.0 0.00 0.03 0.03 53 1005.0
20260506173735 22 100 16.1 33.8 0.00 0.03 0.03 53 1005.0
20260506173229 22 77 16.1 33.8 0.00 0.03 0.03 52 1005.0
20260506172722 22 68 16.1 27.4 0.00 0.03 0.03 52 1005.0
20260506172217 22 75 16.1 38.6 0.00 0.03 0.03 52 1005.1
20260506171710 22 106 22.5 43.5 0.00 0.03 0.03 52 1005.1
20260506171205 22 81 25.7 45.1 0.00 0.03 0.03 51 1004.9
20260506170659 22 68 22.5 45.1 0.00 0.03 0.03 51 1005.0
20260506170153 23 61 17.7 38.6 0.03 0.03 0.03 50 1005.0
20260506165647 23 63 22.5 35.4 0.03 0.03 0.03 50 1005.2
20260506165141 23 68 24.1 43.5 0.03 0.03 0.03 50 1005.0
20260506164635 23 79 20.9 43.5 0.03 0.05 0.03 50 1005.0
20260506164129 23 68 20.9 45.1 0.03 0.05 0.03 50 1005.1
20260506163622 23 83 22.5 45.1 0.03 0.05 0.03 50 1005.1
20260506163117 23 113 19.3 40.2 0.03 0.05 0.03 50 1005.3
20260506162610 23 90 24.1 37.0 0.03 0.05 0.03 50 1005.4
20260506162105 23 87 22.5 49.9 0.03 0.05 0.03 50 1005.4
20260506161559 23 98 20.9 49.9 0.03 0.05 0.03 50 1005.4
20260506161053 23 103 24.1 38.6 0.03 0.05 0.03 50 1005.6
20260506160546 23 78 24.1 41.8 0.03 0.05 0.03 50 1005.6
20260506160042 23 91 19.3 41.8 0.00 0.05 0.00 50 1005.6
20260506155536 23 79 19.3 38.6 0.00 0.05 0.00 49 1005.5
20260506155029 23 102 20.9 38.6 0.00 0.05 0.00 48 1005.6
20260506154523 23 66 19.3 38.6 0.00 0.08 0.00 47 1005.5
20260506154017 24 78 14.5 35.4 0.00 0.08 0.00 46 1005.6
20260506153511 24 87 12.9 35.4 0.00 0.08 0.00 46 1005.6
20260506153005 24 83 14.5 37.0 0.00 0.08 0.00 46 1005.6
20260506152459 24 82 16.1 43.5 0.00 0.10 0.00 46 1005.7
20260506152211 24 74 19.3 43.5 0.00 0.15 0.00 46 1005.7
20260506151447 24 63 27.4 43.5 0.00 0.15 0.00 46 1005.6
20260506150941 24 98 30.6 49.9 0.00 0.15 0.00 46 1005.6
20260506150434 24 72 30.6 49.9 0.00 0.15 0.00 46 1005.6
20260506145928 24 64 30.6 49.9 0.00 0.15 0.00 45 1005.5
20260506145423 24 154 27.4 48.3 0.00 0.15 0.00 44 1005.6
20260506144917 24 80 27.4 45.1 0.00 0.15 0.00 44 1005.7
20260506144415 25 108 29.0 46.7 0.00 0.15 0.00 44 1005.7
20260506143915 25 90 27.4 46.7 0.00 0.15 0.00 43 1005.6
20260506143416 25 72 25.7 41.8 0.00 0.15 0.00 43 1005.7
20260506142915 25 112 25.7 40.2 0.00 0.15 0.00 44 1005.7
20260506142413 25 86 24.1 40.2 0.00 0.15 0.00 43 1005.6
20260506141914 25 100 20.9 40.2 0.00 0.15 0.00 44 1005.8
20260506141414 25 82 22.5 38.6 0.00 0.15 0.00 44 1005.9
20260506140911 25 94 24.1 38.6 0.00 0.15 0.00 44 1005.8
20260506140412 25 89 25.7 43.5 0.00 0.15 0.00 44 1006.0
20260506135911 25 75 25.7 43.5 0.00 0.15 0.00 43 1006.0
20260506135412 25 26 25.7 43.5 0.00 0.15 0.00 43 1006.0
20260506134911 25 162 24.1 43.5 0.00 0.15 0.00 42 1006.1
20260506134411 25 98 20.9 33.8 0.00 0.15 0.00 43 1006.2
20260506133911 25 80 19.3 33.8 0.00 0.15 0.00 43 1006.1
20260506133412 25 322 17.7 27.4 0.00 0.15 0.00 45 1006.2
20260506132911 25 81 17.7 32.2 0.00 0.15 0.00 44 1006.4
20260506132405 25 91 20.9 33.8 0.00 0.15 0.00 43 1006.5
20260506131905 25 91 22.5 41.8 0.00 0.15 0.00 44 1006.6
20260506131405 24 80 27.4 41.8 0.00 0.15 0.00 44 1006.6
20260506130903 24 65 24.1 41.8 0.00 0.15 0.00 43 1006.6
20260506130403 23 83 17.7 38.6 0.00 0.15 0.00 44 1006.6
20260506125903 23 82 14.5 30.6 0.00 0.15 0.00 45 1006.6
20260506125401 23 81 11.3 22.5 0.00 0.15 0.00 45 1006.6
20260506124901 23 70 9.7 22.5 0.00 0.15 0.00 46 1006.7
20260506124401 23 110 9.7 24.1 0.00 0.15 0.00 47 1006.8
20260506123859 23 90 9.7 24.1 0.00 0.15 0.00 48 1006.9
20260506123359 23 96 9.7 22.5 0.00 0.15 0.00 47 1007.0
20260506122859 23 48 11.3 24.1 0.00 0.15 0.00 48 1007.1
20260506122358 23 45 12.9 24.1 0.00 0.15 0.00 48 1007.3
20260506121857 23 91 11.3 27.4 0.00 0.15 0.00 48 1007.4
20260506121358 23 72 14.5 27.4 0.00 0.15 0.00 48 1007.6
20260506120857 23 144 16.1 32.2 0.00 0.15 0.00 49 1007.7
20260506120351 23 89 16.1 32.2 0.00 0.15 0.00 48 1007.7
20260506115847 23 82 12.9 22.5 0.00 0.15 0.00 49 1007.7
20260506115348 23 101 9.7 25.7 0.00 0.15 0.00 47 1007.8
20260506114845 23 103 9.7 25.7 0.00 0.15 0.00 49 1007.8
20260506114343 23 46 14.5 32.2 0.00 0.15 0.00 48 1007.9
20260506113843 23 117 14.5 32.2 0.00 0.15 0.00 49 1008.1
20260506113343 23 77 14.5 35.4 0.00 0.15 0.00 48 1008.0
20260506112843 23 145 19.3 35.4 0.00 0.15 0.00 48 1008.2
20260506112343 23 65 19.3 35.4 0.00 0.15 0.00 49 1008.2
20260506111841 23 65 16.1 35.4 0.00 0.15 0.00 51 1008.2
20260506111342 23 88 17.7 35.4 0.00 0.15 0.00 53 1008.4
20260506110842 22 82 22.5 35.4 0.00 0.15 0.00 52 1008.4
20260506110339 22 108 20.9 35.4 0.00 0.15 0.00 52 1008.5
20260506105838 22 79 19.3 35.4 0.00 0.15 0.00 51 1008.6
20260506105338 22 127 20.9 35.4 0.00 0.15 0.00 52 1008.5
20260506104837 22 84 20.9 35.4 0.00 0.15 0.00 50 1008.7
20260506104337 23 56 19.3 38.6 0.00 0.15 0.00 51 1008.7
20260506103837 23 104 17.7 38.6 0.00 0.15 0.00 52 1008.8
20260506103331 23 51 16.1 32.2 0.00 0.15 0.00 50 1008.8
20260506102830 23 83 14.5 32.2 0.00 0.15 0.00 51 1008.8
20260506102331 23 74 16.1 27.4 0.00 0.15 0.00 51 1008.8
20260506101831 23 80 17.7 35.4 0.00 0.15 0.00 52 1008.8
20260506101331 23 86 17.7 35.4 0.00 0.15 0.00 52 1009.1
20260506100831 23 84 14.5 32.2 0.00 0.15 0.00 52 1009.1
20260506100330 23 64 14.5 27.4 0.00 0.15 0.00 52 1009.2
20260506095831 23 89 11.3 24.1 0.00 0.15 0.00 50 1009.1
20260506095329 23 104 11.3 22.5 0.00 0.15 0.00 50 1009.3
20260506094829 23 86 11.3 22.5 0.00 0.15 0.00 50 1009.4
20260506094329 23 82 11.3 22.5 0.00 0.15 0.00 52 1009.4
20260506093827 22 88 12.9 24.1 0.00 0.15 0.00 53 1009.3
20260506093327 22 84 11.3 24.1 0.00 0.15 0.00 51 1009.4
20260506092827 22 84 12.9 22.5 0.00 0.15 0.00 54 1009.6
20260506092325 22 63 14.5 22.5 0.00 0.15 0.00 53 1009.5
20260506091826 22 81 11.3 20.9 0.00 0.15 0.00 52 1009.7
20260506091325 22 84 12.9 22.5 0.00 0.15 0.00 52 1009.6
20260506090824 22 72 11.3 22.5 0.00 0.15 0.00 52 1009.6
20260506090323 23 70 6.4 20.9 0.00 0.15 0.00 52 1009.6
20260506085823 23 91 6.4 17.7 0.00 0.15 0.00 52 1009.5
20260506085319 22 84 8.0 17.7 0.00 0.15 0.00 52 1009.5
20260506084819 22 82 6.4 14.5 0.00 0.15 0.00 51 1009.5
20260506084319 22 76 4.8 16.1 0.00 0.15 0.00 49 1009.5
20260506083819 22 82 4.8 16.1 0.00 0.15 0.00 51 1009.6
20260506083319 22 96 6.4 20.9 0.00 0.15 0.00 53 1009.6
20260506082819 22 252 6.4 20.9 0.00 0.15 0.00 52 1009.6
20260506082319 22 86 3.2 16.1 0.00 0.15 0.00 50 1009.7
20260506081819 23 49 1.6 9.7 0.00 0.15 0.00 52 1009.8
20260506081319 23 64 0.0 8.0 0.00 0.15 0.00 50 1009.8
20260506080815 23 30 0.0 4.8 0.00 0.15 0.00 51 1009.9
20260506080315 23 79 0.0 4.8 0.00 0.15 0.00 51 1009.8
20260506073314 23 111 0.0 1.6 0.00 0.15 0.00 51 1010.0
20260506072815 23 106 0.0 1.6 0.00 0.15 0.00 52 1009.9
20260506072311 22 110 0.0 1.6 0.00 0.15 0.00 54 1009.9
20260506071811 23 108 0.0 1.6 0.00 0.15 0.00 53 1010.0
20260506071310 23 125 0.0 0.0 0.00 0.15 0.00 54 1010.1
20260506070810 22 169 0.0 3.2 0.00 0.15 0.00 55 1010.1
20260506070311 22 146 0.0 3.2 0.00 0.15 0.00 56 1010.2
20260506062307 18 166 4.8 11.3 0.00 0.15 0.00 62 1010.2
20260506061807 18 225 4.8 11.3 0.00 0.15 0.00 62 1010.2
20260506061307 18 206 4.8 9.7 0.00 0.15 0.00 62 1010.3
20260506060807 18 224 4.8 11.3 0.00 0.15 0.00 63 1010.1
20260506060306 18 212 4.8 11.3 0.00 0.15 0.00 64 1010.2
20260506051258 17 164 4.8 12.9 0.00 0.15 0.00 67 1010.2
20260506050759 17 242 4.8 11.3 0.00 0.15 0.00 68 1010.2
20260506050258 17 206 4.8 11.3 0.00 0.15 0.00 69 1010.1
20260506044752 16 217 6.4 11.3 0.00 0.15 0.00 72 1010.1
20260506044252 16 174 6.4 11.3 0.00 0.15 0.00 72 1010.1
20260506043753 16 160 6.4 9.7 0.00 0.15 0.00 73 1010.0
20260506043251 16 203 4.8 12.9 0.00 0.15 0.00 73 1010.0
20260506042751 16 218 4.8 12.9 0.00 0.15 0.00 74 1009.9
20260506042251 16 224 6.4 12.9 0.00 0.15 0.00 74 1009.9
20260506041751 15 212 6.4 14.5 0.00 0.15 0.00 75 1009.9
20260506041251 15 207 6.4 14.5 0.00 0.15 0.00 75 1009.8
20260506040750 15 203 4.8 12.9 0.00 0.15 0.00 75 1009.8
20260506040251 15 237 4.8 11.3 0.00 0.15 0.00 75 1009.7
20260506035751 15 196 4.8 9.7 0.00 0.15 0.00 75 1009.7